カタログに戻る

DELTA 1 DEB

運用中PO
NORAD 21324·DEBRIS·🇺🇸 United States

打ち上げ Jun 12, 1975 から Vandenberg Space Force Base

Loading…

次のパス (今後24時間)

TLE

最新Source: Space-Track

元期: Sep 14, 2026, 10:24 UTC

1 21324U 75052AS  26257.43366811  .00000714  00000-0  16686-2 0  9996
2 21324  99.5697 240.6264 0313648  42.0075 108.0915 13.11053803677713

AllMySatでDELTA 1 DEBをリアルタイム追跡

Download on the App Store